Location: Moy Burn
(57.3833°N, 4.0667°W)
Time: 12:27:53
(UTC+00:00)

YAOGAN 11 - Pass Details

Date: 08 August 2020
Orbit: 613 x 669 km, 98.3° (Epoch: 21 September)

Event Time Altitude Azimuth Distance (km) Brightness Sun altitude
Exits shadow 23:48:28 26° 143° (SE) 1,318 5.2 -16.5°
Maximum altitude 23:50:59 65° 69° (ENE) 740 4.4 -16.6°
Drops below altitude 10° 23:55:34 10° 348° (NNW) 2,109 8.1 -16.6°
Sets 23:57:48 0° 345° (NNW) 3,023 9.3 -16.7°
